Location: Arroyo Grande
(40.2671°N, 4.2512°W)
Time: 08:20:24
(UTC+00:00)

Cosmos 2278 Rocket - Visible Passes

Search period start: 16 September 2024 00:00
Search period end: 26 September 2024 00:00
Orbit: 841 x 844 km, 71.0° (Epoch: 15 September)

Date Brightness Start Highest point End Pass type
(mag) Time Alt. Az. Time Alt. Az. Time Alt. Az.
16 Sep 3.1 20:02:23 10° NW 20:07:48 47° WSW 20:13:11 10° S visible
17 Sep 3.0 19:47:35 10° NW 19:53:02 50° WSW 19:58:28 10° S visible
18 Sep 3.0 19:32:47 10° NNW 19:38:16 52° WSW 19:43:44 10° S visible
19 Sep 2.9 19:17:59 10° NNW 19:23:31 55° WSW 19:29:00 10° S visible
20 Sep 2.9 19:03:12 10° NNW 19:08:44 58° WSW 19:14:16 10° S visible
21 Sep 2.8 18:48:24 10° NNW 18:53:59 61° WSW 18:59:33 10° S visible
22 Sep 2.8 18:33:36 10° NNW 18:39:13 64° WSW 18:44:47 10° S visible
